Location: Newark
(54.6833°N, 25.2833°E)
Time: 00:53:52
(UTC+00:00)

PRISM - Visible Passes

Search period start: 24 October 2020 00:00
Search period end: 03 November 2020 00:00
Orbit: 565 x 586 km, 98.2° (Epoch: 23 October)

Date Brightness Start Highest point End Pass type
(mag) Time Alt. Az. Time Alt. Az. Time Alt. Az.
24 Oct ? 01:37:26 10° N 01:38:03 14° N 01:38:03 14° N visible
25 Oct ? 01:41:01 10° N 01:41:33 13° N 01:41:33 13° N visible
26 Oct ? 01:44:36 10° N 01:45:03 13° N 01:45:03 13° N visible
27 Oct ? 01:48:11 10° N 01:48:32 12° N 01:48:32 12° N visible
28 Oct ? 01:51:45 10° N 01:52:02 11° N 01:52:02 11° N visible
29 Oct ? 01:55:21 10° N 01:55:31 11° N 01:55:31 11° N visible
30 Oct ? 01:58:56 10° N 01:59:00 10° N 01:59:00 10° N visible
